Theta_e
299 299 300 300 300 300 300 300 300 300 300 300 302 309 312 312 306 307 307 302 305 306 307 307 307 306 304 303 305 311 310 311 312 314 313 311 310 312 313 310 309 311 312 311 309
299 299 299 299 300 300 301 301 301 301 300 300 300 299 306 311 308 305 302 302 303 304 304 305 307 307 304 305 304 306 307 308 308 308 307 305 305 305 307 306 306 306 307 307 308
298 298 298 299 299 300 300 300 301 301 300 300 299 299 300 306 305 298 301 302 302 303 303 303 304 304 303 304 304 303 303 304 304 304 302 303 303 303 304 304 305 306 306 306 307
298 298 298 299 299 299 299 300 300 300 300 300 299 299 301 304 304 298 300 300 301 302 302 303 304 302 302 303 302 302 302 302 302 302 302 301 302 302 303 303 304 305 305 305 305
297 297 298 298 298 298 298 300 300 300 300 299 299 299 303 300 293 297 299 298 299 301 302 303 304 302 301 301 301 300 300 301 302 303 301 300 300 301 302 302 302 302 302 302 302
296 297 297 297 297 298 299 299 299 299 298 298 299 302 299 291 293 293 294 295 296 299 301 301 301 302 302 301 300 299 300 300 301 298 298 298 299 300 301 298 298 299 300 300 300
295 295 295 296 298 300 301 298 298 298 299 300 300 298 296 291 292 292 293 294 295 298 300 299 299 301 299 298 298 299 298 298 297 296 296 297 301 299 295 295 295 295 296 297 298
294 294 294 298 301 301 299 298 300 299 298 298 298 298 291 291 292 294 294 294 298 299 299 298 299 296 292 294 296 294 295 296 296 292 294 295 299 295 294 293 293 293 294 295 297
293 293 295 300 300 302 300 299 300 301 300 299 297 297 291 292 293 292 293 297 298 298 298 299 298 290 291 290 292 289 291 292 292 291 291 291 291 293 291 291 292 292 291 292 294
293 294 294 299 300 300 299 299 299 298 298 298 296 294 290 289 290 292 293 296 297 297 295 293 289 287 288 288 290 288 288 288 288 289 289 289 290 290 293 292 291 291 290 289 288
293 294 294 296 299 299 297 297 296 294 292 288 289 289 289 289 290 291 293 294 294 292 287 288 287 286 286 286 287 286 286 285 286 288 288 288 288 293 292 292 291 290 289 289 288
293 293 294 296 300 299 299 298 294 291 289 289 289 290 289 288 289 291 291 290 288 287 288 286 286 286 288 288 287 286 286 285 287 289 289 288 289 292 293 292 292 291 289 288 288
292 294 294 295 297 300 298 296 292 292 290 289 288 288 288 288 287 287 289 288 286 286 286 286 286 287 287 286 287 286 287 286 286 288 288 288 290 294 293 292 291 291 290 288 287
292 293 293 293 297 299 298 292 293 292 286 289 289 288 288 289 287 287 287 288 286 285 285 285 286 287 286 286 287 287 287 287 287 288 289 288 292 291 293 292 291 290 289 288 287
292 292 293 294 295 297 294 294 297 297 290 288 287 288 287 287 286 287 287 288 286 286 286 285 286 286 286 286 287 288 287 288 288 288 288 291 290 293 292 291 291 290 289 288 287
292 292 292 293 296 296 293 297 297 291 287 284 287 288 288 287 287 287 287 286 286 286 286 286 286 286 286 287 287 287 287 288 289 289 287 290 289 289 292 291 290 290 289 288 286
293 292 292 292 294 296 296 298 290 290 283 283 285 288 287 286 287 286 286 285 283 283 284 285 286 286 286 286 286 287 285 286 287 285 288 288 288 289 292 291 290 289 288 287 286
293 292 291 292 293 296 295 290 287 279 278 286 287 286 286 285 285 285 286 284 284 283 282 284 286 285 286 286 284 287 284 284 284 288 286 287 291 292 290 289 288 288 287 286 286
293 292 291 291 292 295 292 284 286 282 284 287 286 283 279 285 284 284 284 281 281 280 279 279 284 285 286 286 284 283 283 284 279 284 286 287 287 288 290 288 287 287 287 286 286
292 292 291 291 291 292 286 283 280 286 287 286 285 283 277 277 282 281 283 280 285 285 282 283 281 285 286 285 286 282 284 282 281 277 280 286 287 288 289 288 287 287 286 286 286
292 291 291 290 290 290 284 274 282 287 287 288 286 281 283 280 280 278 281 283 283 286 283 276 280 285 285 283 284 283 283 283 283 283 283 285 285 280 287 288 287 286 287 286 286
291 288 291 290 290 277 274 279 287 287 287 287 286 285 283 283 280 279 280 282 285 286 285 282 279 280 283 283 282 281 280 282 279 280 283 284 283 285 286 287 287 287 287 287 286
291 291 291 290 283 273 279 284 287 287 286 286 287 286 286 285 280 284 285 286 285 285 281 280 278 278 283 280 281 279 284 285 282 282 282 280 284 284 287 284 285 287 287 287 287
291 286 290 289 283 281 277 282 284 286 286 286 284 285 285 284 284 279 285 286 286 286 287 286 276 279 284 284 277 278 280 285 279 277 282 283 285 286 285 285 284 287 288 287 286
290 282 282 278 281 279 281 283 286 285 285 286 285 282 279 278 281 282 284 285 286 286 287 284 279 275 281 283 283 283 282 282 283 283 281 287 285 285 284 282 284 285 287 286 285
289 287 284 283 282 278 279 282 285 286 283 282 280 284 282 279 282 282 281 283 283 282 281 278 276 273 276 283 283 283 283 282 283 284 283 284 284 285 285 285 284 284 286 286 285
289 287 287 281 278 277 279 284 286 285 285 285 284 283 284 284 284 285 285 285 285 281 282 278 276 274 277 279 280 279 280 282 282 277 282 283 284 284 284 284 285 286 287 286 285
Wind_Speed
8 10 10 10 10 10 10 9 9 9 8 8 6 4 6 4 8 5 9 14 12 11 10 8 6 5 1 3 5 6 3 3 5 4 6 6 6 8 8 18 26 15 22 33 40
11 10 10 10 10 10 10 10 9 9 9 8 7 6 9 9 4 11 13 9 7 9 9 10 9 6 3 2 4 4 4 9 4 2 5 15 4 17 5 14 31 31 33 33 34
16 17 16 16 15 13 11 9 9 9 8 9 8 7 8 8 4 14 13 11 10 10 11 9 5 5 3 2 1 2 5 1 4 8 16 16 22 12 9 4 15 25 40 37 40
15 15 15 16 16 15 15 13 9 6 7 8 7 9 9 10 1 15 15 13 11 10 9 5 2 2 3 2 3 1 3 4 7 18 19 13 24 17 20 18 27 31 39 42 35
14 14 13 13 12 11 12 12 10 6 3 8 10 9 11 8 12 18 14 12 10 7 5 5 6 3 3 2 6 2 5 14 21 22 24 21 14 20 27 26 23 22 22 26 30
14 13 11 11 9 8 9 9 7 4 5 10 14 14 7 9 15 17 14 8 4 3 4 6 5 4 5 3 3 10 11 17 12 21 12 22 16 6 17 34 36 35 34 36 37
15 13 13 9 8 10 11 9 9 14 16 17 16 19 21 12 16 14 9 8 4 5 8 8 7 6 3 3 11 6 5 3 14 20 8 31 4 8 30 49 42 38 45 44 44
15 12 11 9 12 12 13 17 19 19 20 15 10 3 10 23 11 12 9 10 11 11 16 11 8 15 11 10 6 6 5 6 5 26 12 15 5 20 46 44 46 44 39 36 35
16 12 10 9 14 14 16 14 13 12 12 9 6 8 6 17 21 23 20 17 22 20 19 10 10 13 16 4 4 11 4 6 13 21 14 15 14 22 43 40 35 40 40 35 31
17 12 8 7 12 16 15 17 11 13 13 12 9 8 14 16 25 17 19 13 12 15 10 16 12 5 9 9 2 5 5 6 11 9 9 14 10 22 28 28 24 28 38 34 37
18 13 7 4 10 17 17 8 3 11 37 18 12 10 11 11 19 20 18 17 14 15 6 14 12 10 5 6 4 3 4 10 9 4 14 7 12 8 18 23 24 26 28 40 39
17 13 7 5 11 13 7 3 6 15 19 21 17 12 16 15 12 25 17 10 16 6 4 6 10 4 2 3 3 2 5 5 12 9 10 5 10 2 11 15 17 22 28 30 44
16 14 7 6 6 14 7 2 20 12 8 9 14 11 10 11 13 24 16 7 9 12 10 7 4 5 4 2 11 3 1 5 9 14 4 5 2 5 7 17 25 28 25 28 30
15 13 11 4 4 9 7 19 11 5 5 10 10 10 12 4 7 23 14 5 6 4 3 6 3 3 3 3 8 3 3 12 15 7 3 4 4 4 6 10 18 27 30 29 34
14 14 9 8 4 7 16 15 5 2 4 5 5 5 14 8 5 17 17 12 5 4 2 2 2 3 3 5 8 7 14 12 9 3 1 3 1 3 4 12 18 24 27 29 29
9 15 12 5 4 9 20 9 2 6 3 2 4 6 4 12 6 12 12 10 5 4 9 3 1 1 2 8 3 14 5 1 2 2 3 4 4 3 4 7 15 21 25 27 32
11 7 12 6 4 11 13 8 5 5 5 4 1 3 4 6 6 9 5 8 4 4 6 3 1 3 4 4 4 12 4 4 5 5 4 1 3 7 2 4 9 13 23 27 32
11 4 13 7 6 13 14 5 5 2 5 3 2 3 4 6 3 5 2 3 5 4 3 3 3 3 5 3 3 6 4 4 3 4 6 8 5 5 5 1 8 10 16 27 30
9 2 10 6 7 13 4 5 6 6 5 7 3 5 3 1 2 3 4 3 3 1 5 3 3 2 1 1 3 3 4 3 4 2 2 5 6 4 2 4 13 19 23 26 29
4 3 12 4 8 7 4 4 3 1 4 2 4 1 3 3 2 4 1 3 2 2 2 2 3 2 0 1 3 5 3 2 3 3 6 6 6 7 3 6 8 12 16 25 27
2 4 10 4 6 3 4 5 3 2 2 2 3 3 3 3 3 2 3 2 3 4 3 3 3 2 4 4 6 1 2 3 3 3 3 5 8 7 6 3 5 10 16 20 24
2 2 9 6 3 5 3 5 3 3 2 2 4 3 4 4 3 1 4 5 9 9 4 4 4 4 7 1 4 3 6 5 4 4 4 2 9 6 6 6 8 13 19 19 21
2 3 7 5 3 1 1 1 2 3 2 2 3 3 2 4 2 4 3 2 13 7 6 4 1 4 3 4 4 3 5 4 2 3 7 5 7 4 7 6 20 16 19 21 20
1 2 7 10 8 7 5 1 3 2 3 4 4 4 3 2 1 3 3 2 12 9 8 7 3 7 6 4 4 2 4 11 6 3 4 15 17 22 16 16 14 20 22 22 22
4 3 3 2 6 5 3 3 4 3 2 4 2 4 6 3 1 3 4 2 6 8 5 5 5 4 12 14 13 17 13 13 17 21 9 22 10 22 11 9 22 24 23 21 22
4 3 6 5 3 3 4 4 6 3 6 3 4 4 6 6 8 7 6 4 6 1 4 1 3 2 6 8 13 17 18 20 25 27 26 31 30 30 39 32 23 25 24 20 21
7 6 3 1 2 3 3 5 6 7 6 4 9 4 6 15 17 15 12 10 10 9 7 6 3 3 6 6 9 9 11 11 8 5 16 16 20 13 13 13 18 20 20 20 22
Wind_Direction
338 330 326 323 318 313 308 298 291 286 277 267 257 212 194 182 78 86 26 3 353 358 4 358 333 352 21 156 160 145 83 228 237 218 261 355 26 300 315 300 300 289 290 290 301
341 336 328 321 311 307 301 294 290 286 279 273 255 208 201 192 174 62 49 39 16 1 358 358 3 7 98 116 161 130 147 220 228 302 312 309 300 310 304 293 290 299 294 299 304
343 342 335 330 324 320 309 298 293 281 267 252 242 202 197 179 159 17 22 21 19 14 359 345 360 29 94 144 116 120 193 243 299 331 349 313 315 326 292 285 288 298 300 307 311
345 338 331 328 325 322 317 313 299 273 257 241 219 184 175 165 159 357 5 353 352 352 342 352 350 97 92 90 53 349 266 7 318 326 325 305 306 301 282 278 299 296 301 304 313
355 345 337 331 328 324 323 313 318 312 232 194 187 163 149 96 1 349 353 337 337 343 342 32 68 83 92 344 339 137 338 329 319 319 319 328 297 290 308 333 339 348 341 344 343
2 354 349 347 350 348 335 335 341 2 122 147 147 141 123 70 4 356 341 335 324 22 67 75 75 71 81 51 51 323 302 309 345 360 351 349 308 308 7 351 346 346 343 336 332
13 11 11 19 36 49 38 52 78 103 112 125 135 122 72 43 22 8 346 350 5 83 107 90 81 103 56 13 335 298 325 346 34 359 18 346 28 78 355 343 335 334 328 326 322
23 24 26 60 64 65 67 104 103 104 116 116 129 118 82 28 41 33 69 82 74 91 104 96 105 65 39 320 33 28 58 360 13 9 357 17 274 347 338 333 327 332 342 336 330
28 27 38 97 113 102 102 107 99 103 112 106 105 102 55 16 42 39 39 101 91 97 93 116 74 57 14 28 41 25 329 338 324 344 350 26 317 323 323 323 331 357 10 13 5
30 27 47 124 114 118 117 110 115 120 107 112 76 66 32 1 20 30 51 121 106 109 73 49 62 66 27 36 57 328 328 292 299 317 359 310 303 325 14 35 11 1 2 7 4
23 35 51 122 151 135 135 110 107 65 63 67 65 81 29 26 32 36 62 87 75 62 65 34 60 41 355 82 156 219 262 291 286 325 357 7 310 41 22 32 10 9 7 3 359
21 33 49 41 173 174 165 34 116 127 80 68 69 58 43 26 33 36 56 70 43 74 66 61 60 317 318 49 343 264 301 308 303 335 331 342 304 291 38 30 21 7 4 3 1
22 23 49 56 167 188 214 81 129 119 82 37 33 27 10 31 42 9 27 54 58 56 45 85 162 309 36 27 0 303 231 310 291 326 333 327 298 332 7 22 9 10 5 1 0
23 30 37 63 92 191 199 148 130 109 83 342 356 21 7 43 58 22 26 57 46 118 99 78 353 344 1 37 359 306 167 311 301 328 322 62 289 295 325 350 4 356 355 354 355
20 31 39 40 119 141 152 149 110 56 63 350 359 24 34 71 330 11 26 66 70 59 153 235 17 340 40 349 332 258 317 288 288 212 329 12 2 268 325 348 348 344 345 349 353
355 27 33 53 101 145 157 151 74 44 252 354 355 360 37 24 33 1 25 61 78 53 48 83 300 302 278 314 281 306 327 356 116 111 36 164 51 284 13 319 329 336 346 347 350
341 4 26 47 127 152 167 152 42 118 345 291 35 31 90 12 18 19 34 31 60 69 19 336 139 327 358 335 329 346 12 358 357 9 247 24 351 250 233 289 308 328 339 345 351
335 323 15 40 130 153 151 61 88 234 215 224 139 92 82 5 33 356 84 40 31 54 75 50 339 17 349 119 222 3 56 117 259 313 301 321 225 257 188 344 341 340 347 352 351
327 278 11 43 135 157 162 65 194 196 162 157 93 77 352 20 107 49 43 149 226 79 119 64 274 328 220 59 113 310 52 190 90 10 315 274 290 297 190 333 356 357 350 350 352
317 176 11 66 135 159 79 160 149 230 132 149 124 94 151 282 78 59 10 221 186 175 165 174 351 196 58 118 48 112 188 116 39 28 299 279 279 246 290 337 332 337 334 346 351
183 156 7 129 135 98 114 205 206 179 168 120 136 115 153 157 142 189 204 254 215 166 101 125 105 285 27 202 176 94 110 61 119 148 205 303 264 221 197 220 281 299 335 339 347
176 73 6 156 33 54 91 181 140 143 106 96 98 112 146 148 134 187 211 214 186 160 162 197 143 264 227 299 354 154 188 145 130 231 223 217 265 238 204 193 230 326 328 332 339
83 92 19 160 113 24 313 48 112 143 170 116 105 109 159 152 64 199 212 237 178 156 166 197 288 335 358 3 4 184 198 177 116 117 212 156 258 226 208 282 335 307 317 322 326
50 43 43 64 75 119 133 191 118 108 109 107 120 96 100 94 181 193 232 229 195 199 174 159 175 197 207 197 128 207 217 198 155 168 213 226 269 272 261 286 288 292 305 311 313
47 71 62 334 21 83 82 145 136 170 95 156 51 172 158 137 37 220 199 299 207 214 211 154 231 203 257 273 264 257 237 213 218 227 213 266 249 266 273 276 285 285 287 298 309
60 109 91 81 87 74 356 217 160 166 145 248 166 200 171 177 189 194 154 190 209 57 137 102 267 122 279 260 259 262 256 232 234 244 245 257 273 273 277 276 265 259 270 286 301
62 84 120 41 68 78 224 184 201 160 209 192 194 132 200 238 240 252 252 233 208 164 180 160 158 47 265 342 307 285 244 201 191 216 220 231 241 267 273 259 246 256 271 283 295